TimeCDT,TemperatureF,Dew PointF,Humidity,Sea Level PressureIn,VisibilityMPH,Wind Direction,Wind SpeedMPH,Gust SpeedMPH,PrecipitationIn,Events,Conditions,WindDirDegrees,DateUTC
12:53 AM,73.9,66.9,79,30.17,10.0,Calm,Calm,-,N/A,,Scattered Clouds,0,2013-07-16 05:53:00
1:53 AM,73.9,66.9,79,30.17,10.0,Calm,Calm,-,N/A,,Overcast,0,2013-07-16 06:53:00
2:53 AM,75.0,69.1,82,30.17,10.0,Calm,Calm,-,N/A,,Overcast,0,2013-07-16 07:53:00
3:53 AM,73.0,68.0,84,30.17,10.0,Calm,Calm,-,N/A,,Mostly Cloudy,0,2013-07-16 08:53:00
4:53 AM,72.0,66.9,84,30.17,10.0,Calm,Calm,-,N/A,,Partly Cloudy,0,2013-07-16 09:53:00
5:53 AM,72.0,66.9,84,30.19,10.0,Calm,Calm,-,N/A,,Mostly Cloudy,0,2013-07-16 10:53:00
6:53 AM,72.0,66.9,84,30.21,10.0,Calm,Calm,-,N/A,,Clear,0,2013-07-16 11:53:00
7:53 AM,75.9,66.9,74,30.22,10.0,Calm,Calm,-,N/A,,Clear,0,2013-07-16 12:53:00
8:53 AM,80.1,66.0,62,30.24,10.0,North,3.5,-,N/A,,Clear,360,2013-07-16 13:53:00
9:53 AM,84.0,63.0,49,30.24,10.0,NNE,5.8,-,N/A,,Clear,30,2013-07-16 14:53:00
10:53 AM,86.0,64.9,49,30.24,10.0,Variable,3.5,-,N/A,,Clear,0,2013-07-16 15:53:00
11:53 AM,88.0,66.0,48,30.25,10.0,Variable,3.5,-,N/A,,Clear,0,2013-07-16 16:53:00
12:53 PM,91.0,66.0,44,30.23,10.0,NNE,4.6,-,N/A,,Clear,30,2013-07-16 17:53:00
1:53 PM,89.1,64.9,45,30.21,10.0,Calm,Calm,-,N/A,,Scattered Clouds,0,2013-07-16 18:53:00
2:53 PM,91.0,64.0,41,30.20,10.0,East,3.5,-,N/A,,Mostly Cloudy,100,2013-07-16 19:53:00
3:53 PM,93.9,66.0,40,30.18,10.0,Variable,4.6,-,N/A,,Scattered Clouds,0,2013-07-16 20:53:00
4:53 PM,91.0,63.0,39,30.17,10.0,SSE,8.1,-,N/A,,Partly Cloudy,150,2013-07-16 21:53:00
5:53 PM,93.9,62.1,35,30.17,10.0,North,-9999.0,-,N/A,,Clear,0,2013-07-16 22:53:00
6:53 PM,93.0,64.0,38,30.18,10.0,East,9.2,-,N/A,,Clear,100,2013-07-16 23:53:00
7:53 PM,90.0,64.9,43,30.18,10.0,SE,4.6,-,N/A,,Partly Cloudy,140,2013-07-17 00:53:00
8:53 PM,84.9,66.9,55,30.18,10.0,East,3.5,-,N/A,,Partly Cloudy,100,2013-07-17 01:53:00
9:53 PM,82.0,69.1,65,30.21,10.0,Calm,Calm,-,N/A,,Clear,0,2013-07-17 02:53:00
10:53 PM,80.1,71.1,74,30.23,10.0,Calm,Calm,-,N/A,,Clear,0,2013-07-17 03:53:00
11:53 PM,80.1,68.0,67,30.24,10.0,Calm,Calm,-,N/A,,Partly Cloudy,0,2013-07-17 04:53:00